TimeCET,TemperatureF,Dew PointF,Humidity,Sea Level PressureIn,VisibilityMPH,Wind Direction,Wind SpeedMPH,Gust SpeedMPH,PrecipitationIn,Events,Conditions,WindDirDegrees,DateUTC
12:00 AM,35.6,35.6,100,29.36,6.2,East,4.6,-,N/A,,Partly Cloudy,100,2012-11-01 23:00:00
1:00 AM,37.4,37.4,100,29.39,6.2,SE,3.5,-,N/A,,Partly Cloudy,130,2012-11-02 00:00:00
1:07 AM,37.4,37.4,100,29.39,6.2,SE,3.5,-,N/A,Rain,Light Rain,130,2012-11-02 00:07:00
2:00 AM,41.0,39.2,93,29.42,6.2,South,4.6,-,N/A,Rain,Light Rain,180,2012-11-02 01:00:00
3:00 AM,41.0,39.2,93,29.42,6.2,South,4.6,-,N/A,,Scattered Clouds,180,2012-11-02 02:00:00
4:00 AM,41.0,37.4,87,29.47,6.2,SW,9.2,20.7,N/A,,Mostly Cloudy,230,2012-11-02 03:00:00
5:00 AM,39.2,37.4,93,29.50,-9999.0,North,-9999.0,-,N/A,,Partly Cloudy,0,2012-11-02 04:00:00
6:00 AM,39.2,35.6,87,29.50,6.2,Variable,2.3,-,N/A,,Mostly Cloudy,0,2012-11-02 05:00:00
7:00 AM,39.2,35.6,87,29.53,6.2,Variable,3.5,-,N/A,Rain,Light Rain,0,2012-11-02 06:00:00
7:30 AM,39.2,35.6,87,29.53,6.2,SSW,11.5,-,N/A,,Scattered Clouds,210,2012-11-02 06:30:00
8:00 AM,39.2,33.8,81,29.56,6.2,SW,10.4,-,N/A,,Scattered Clouds,220,2012-11-02 07:00:00
8:30 AM,39.2,33.8,81,29.56,6.2,SW,9.2,-,N/A,,Partly Cloudy,230,2012-11-02 07:30:00
9:00 AM,39.2,32.0,75,29.56,6.2,WSW,9.2,-,N/A,,Scattered Clouds,240,2012-11-02 08:00:00
9:30 AM,41.0,32.0,70,29.59,6.2,SSW,8.1,-,N/A,,Partly Cloudy,210,2012-11-02 08:30:00
10:00 AM,41.0,33.8,76,29.62,6.2,SSW,9.2,-,N/A,,Partly Cloudy,210,2012-11-02 09:00:00
10:05 AM,41.0,33.8,76,29.62,6.2,SSW,12.7,24.2,N/A,Rain,Light Rain,210,2012-11-02 09:05:00
10:30 AM,42.8,33.8,70,29.62,6.2,SW,11.5,-,N/A,,Partly Cloudy,220,2012-11-02 09:30:00
11:00 AM,42.8,33.8,70,29.62,6.2,SW,12.7,-,N/A,,Partly Cloudy,230,2012-11-02 10:00:00
11:30 AM,42.8,32.0,66,29.62,6.2,WSW,11.5,-,N/A,,Scattered Clouds,240,2012-11-02 10:30:00
12:00 PM,44.6,33.8,66,29.62,6.2,SSW,10.4,-,N/A,,Scattered Clouds,210,2012-11-02 11:00:00
12:30 PM,44.6,33.8,66,29.62,6.2,SSW,11.5,-,N/A,,Mostly Cloudy,210,2012-11-02 11:30:00
1:00 PM,44.6,33.8,66,29.62,6.2,WSW,11.5,-,N/A,,Mostly Cloudy,240,2012-11-02 12:00:00
1:30 PM,44.6,32.0,61,29.62,6.2,SW,9.2,-,N/A,,Mostly Cloudy,220,2012-11-02 12:30:00
2:00 PM,46.4,32.0,57,29.62,6.2,SW,9.2,-,N/A,,Mostly Cloudy,220,2012-11-02 13:00:00
2:30 PM,44.6,32.0,61,29.62,6.2,SW,10.4,-,N/A,,Scattered Clouds,220,2012-11-02 13:30:00
3:00 PM,44.6,32.0,61,29.62,6.2,SSW,9.2,-,N/A,,Scattered Clouds,210,2012-11-02 14:00:00
3:30 PM,44.6,33.8,66,29.62,6.2,SSW,6.9,-,N/A,,Scattered Clouds,210,2012-11-02 14:30:00
4:00 PM,44.6,33.8,66,29.65,6.2,SSW,6.9,-,N/A,,Partly Cloudy,200,2012-11-02 15:00:00
4:30 PM,42.8,32.0,66,29.65,6.2,South,5.8,-,N/A,,Partly Cloudy,190,2012-11-02 15:30:00
5:00 PM,41.0,32.0,70,29.62,-9999.0,SSE,3.5,-,N/A,,Clear,160,2012-11-02 16:00:00
5:30 PM,37.4,32.0,81,29.62,-9999.0,ESE,4.6,-,N/A,,Clear,120,2012-11-02 16:30:00
6:00 PM,35.6,32.0,87,29.62,-9999.0,ESE,5.8,-,N/A,,Clear,110,2012-11-02 17:00:00
6:30 PM,37.4,33.8,87,29.62,-9999.0,ESE,4.6,-,N/A,,Clear,120,2012-11-02 17:30:00
7:00 PM,39.2,33.8,81,29.62,-9999.0,SSE,4.6,-,N/A,,Clear,160,2012-11-02 18:00:00
7:30 PM,41.0,33.8,76,29.59,-9999.0,SSE,4.6,-,N/A,,Clear,150,2012-11-02 18:30:00
8:00 PM,42.8,33.8,70,29.59,-9999.0,SSE,4.6,-,N/A,,Clear,160,2012-11-02 19:00:00
8:15 PM,41.0,33.8,76,29.59,6.2,SSE,4.6,-,N/A,Rain,Light Rain,150,2012-11-02 19:15:00
9:00 PM,39.2,35.6,87,29.59,6.2,SSE,3.5,-,N/A,Rain,Light Rain,160,2012-11-02 20:00:00
10:00 PM,39.2,37.4,93,29.59,6.2,SSW,4.6,-,N/A,Rain,Light Rain,200,2012-11-02 21:00:00
11:00 PM,39.2,37.4,93,29.59,6.2,Variable,2.3,-,N/A,Rain,Light Rain,0,2012-11-02 22:00:00